Regional Weather Roundup
Issued by NWS State College, PA

Home | Current Version | Previous Version | Text Only | Print | Product List | Glossary On
Versions: 1 2 3 4 5 6 7 8 9 10 11 12 13 14 15 16 17 18 19 20 21 22 23 24 25 26 27 28 29 30 31 32 33 34 35 36 37 38 39 40 41 42 43 44 45 46 47 48 49 50
000
ASUS41 KCTP 231810
RWRCTP

REGIONAL WEATHER ROUNDUP
NATIONAL WEATHER SERVICE STATE COLLEGE PA
200 PM EDT MON OCT 23 2017

Note: "fair" indicates few or no clouds below 12,000 feet with no
significant weather and/or obstructions to visibility.

* = STATION THAT DOES NOT REPORT PRECIPITATION /E.G. RAIN...SNOW...ETC/
    THUNDER OR FOG.

PAZ002>004-007>009-013>016-020>023-029>032-231900-
WESTERN PENNSYLVANIA

CITY           SKY/WX    TMP DP  RH WIND       PRES   REMARKS
ERIE           CLOUDY    68  56  65 SE15G28   29.84F
MEADVILLE      CLOUDY    64  58  80 VRB6G17   29.89F
FRANKLIN*      CLOUDY    64  57  78 SE16G28   29.93F
NEW CASTLE     LGT RAIN  65  62  90 SE7G16    29.89F
BEAVER COUNTY  LGT RAIN  63  59  88 SE8       29.89F
BUTLER*        RAIN      63  59  87 SE8G18    29.91F
PITTSBURGH INT LGT RAIN  65  61  87 SE13      29.88F
PITTSBURGH     CLOUDY    65  57  75 SE14G22   29.89F
INDIANA*       MOSUNNY   66  57  72 SE10G21   29.98F
LATROBE        LGT RAIN  66  57  72 S14       29.95F
WASHINGTON CO* LGT RAIN  64  60  87 SE6       29.90F
$$

PAZ004>006-010>012-017>019-024>028-033>037-041-042-045-046-049>053-231900-
CENTRAL PENNSYLVANIA

CITY           SKY/WX    TMP DP  RH WIND       PRES   REMARKS
BRADFORD       CLOUDY    64  54  69 SE15G31   30.01F
DUBOIS         CLOUDY    65  53  65 SE12G20   29.98F
CLEARFIELD     CLOUDY    66  56  70 VRB6      30.04F
JOHNSTOWN      CLOUDY    62  55  77 SE16G29   29.99F
ALTOONA        CLOUDY    65  57  75 SE15G25   30.06F
STATE COLLEGE  CLOUDY    66  55  68 S14       30.07F
WILLIAMSPORT   CLOUDY    69  59  70 SE8G23    30.08F
SELINSGROVE    CLOUDY    67  61  81 SE5       30.09F
FT INDIANTOWN  CLOUDY    68  65  90 SE6       30.09F
CAPITAL CITY   CLOUDY    71  61  70 E10       30.09F
HARRISBURG     PTSUNNY   70  63  78 SE8       30.08F
YORK           PTSUNNY   71  62  73 SE10      30.09F
$$

PAZ038>040-043-044-047-048-054-055-060>062-067>071-231900-
EASTERN PENNSYLVANIA

CITY           SKY/WX    TMP DP  RH WIND       PRES   REMARKS
SCRANTON       CLOUDY    68  59  73 VRB6      30.15F
MOUNT POCONO   CLOUDY    61  60  97 SE13G21   30.19F
ALLENTOWN      CLOUDY    71  62  73 SE8       30.15F
QUAKERTOWN*    CLOUDY    72  64  78 SE6       30.16F
READING        CLOUDY    72  65  78 SE9       30.11F
LANCASTER      PTSUNNY   73  64  73 SE13G20   30.10F
COATESVILLE    CLOUDY    72  64  78 SE12G18   30.14F
POTTSTOWN      CLOUDY    72  63  73 SE8       30.15F
BLUE BELL      CLOUDY    72  63  73 S10G20    30.16F
DOYLESTOWN     CLOUDY    71  62  73 S8G17     30.15F
WILLOW GROVE   NOT AVBL
NORTH PHILA    CLOUDY    76  63  64 SE13G20   30.17F
PHILADELPHIA   CLOUDY    77  64  64 SE13      30.14F
$$



USA.gov is the U.S. government's official web portal to all federal, state and local government web resources and services.